Location: Peach Mountain Observatory
(42.3967°N, 83.9367°W)
Time: 10:49:16
(UTC-04:00)

deb Explorer IX - Pass Details

Date: 23 January 2020
Orbit: 547 x 1100 km, 38.8° (Epoch: 31 March)

Event Time Altitude Azimuth Distance (km) Brightness Sun altitude
Rises 05:25:31 0° 274° (W) 3,794 - -28.0°
Reaches altitude 10° 05:29:31 10° 254° (WSW) 2,746 - -27.2°
Maximum altitude 05:33:08 15° 221° (SW) 2,277 - -26.6°
Exits shadow 05:35:26 13° 196° (SSW) 2,378 ? -26.1°
Drops below altitude 10° 05:36:31 10° 187° (S) 2,533 ? -25.9°
Sets 05:40:00 0° 164° (SSE) 3,343 ? -25.3°
